#timestamp,LO_Frequency,Hit,StdDev 
1662645615.5,286046994.8,N
1662645635.3,286046993.9,N
1662645655.1,286046994.6,N
1662645675.9,286046992.2,N
1662645695.7,286046992.2,N
1662645715.6,286046992.3,N
1662645735.4,286046990.1,N
1662645755.2,286046991.0,N
1662645775.1,286046992.4,N
1662645776.0,286046992.4,N
1662645795.8,286046997.5,N
1662645815.6,286046999.3,N
1662645835.5,286046997.6,N
1662645855.3,286046996.1,N
1662645875.2,286046995.8,N
1662645895.9,286046993.4,N
1662645915.7,286046992.2,N
1662645935.6,286046991.9,N
1662645955.4,286046991.2,N
1662645975.2,286046989.1,N
1662645995.1,286046988.8,N
1662645996.0,286046988.8,N
1662646015.8,286046989.0,N
1662646035.6,286046988.8,N
1662646055.5,286046992.3,N
1662646075.3,286046993.3,N
1662646095.2,286046990.9,Y
1662646115.0,286046998.1,P
1662646115.9,286046998.1,N
1662646135.7,286046998.8,N
1662646155.6,286046996.9,N
1662646175.4,286046999.6,N
1662646195.3,286046999.3,N
1662646215.1,286046995.5,N
1662646216.0,286046995.5,N
1662646235.8,286046993.4,Y
1662646255.7,286047000.8,P
1662646275.5,286047000.6,N
1662646295.4,286047000.8,N
1662646315.2,286046996.6,N
1662646335.0,286046997.7,N
1662646335.9,286046997.7,N
1662646355.8,286046998.7,N
1662646375.6,286046996.7,N
1662646395.4,286046997.9,N
1662646415.3,286046997.5,N
1662646435.1,286046996.2,N
1662646455.9,286046993.4,Y
1662646475.7,286046998.4,P
1662646495.5,286046997.2,P
1662646515.4,286046997.0,P
1662646535.2,286046997.3,Y
1662646555.0,286046998.9,P
1662646555.9,286046998.9,N
1662646575.8,286046997.8,P
1662646595.6,286046999.2,N
1662646615.5,286046997.0,Y
1662646635.3,286046998.2,P
1662646655.1,286047001.6,P
1662646675.9,286046998.7,N
1662646695.7,286047000.4,N
1662646715.5,286047006.0,Y
1662646735.4,286047003.9,P
1662646755.2,286047008.3,P
1662646775.1,286047005.9,N
1662646776.0,286047005.9,N
1662646795.8,286047003.9,N
1662646815.6,286047002.5,N
1662646835.5,286047000.0,N
1662646855.3,286047002.8,N
1662646875.1,286047002.8,N
1662646895.9,286047002.5,N
1662646915.7,286047002.4,N
1662646935.6,286046998.1,N
1662646955.4,286046999.5,N
1662646975.2,286046997.8,N
1662646995.1,286046997.9,N
1662646996.0,286046997.9,N
1662647015.8,286046995.3,N
1662647035.6,286046997.9,N
1662647055.5,286046997.7,N
1662647075.3,286046995.7,N
1662647095.2,286046994.6,N
1662647115.9,286046994.5,N
1662647135.7,286046996.2,N
1662647155.6,286046996.9,N
1662647175.4,286046997.0,N
1662647195.2,286046997.7,N
1662647215.1,286046995.6,N
1662647216.0,286046995.6,N
1662647235.8,286046995.1,N
1662647255.7,286046996.4,N
1662647275.5,286046993.6,N
1662647295.3,286046994.1,N
1662647315.2,286046992.2,N
1662647335.0,286046988.8,Y
1662647335.9,286046988.8,P
1662647355.8,286046990.5,N
1662647375.6,286046994.3,N
1662647395.4,286046996.1,N
1662647415.3,286046993.4,N
1662647435.1,286046993.4,N
1662647455.9,286046992.2,N
1662647475.7,286046993.2,N
1662647495.5,286046990.8,Y
1662647515.4,286046998.4,P
1662647535.2,286046998.9,N
1662647555.1,286046999.2,N
1662647556.0,286046999.2,N
1662647575.8,286046998.2,N
1662647595.6,286046995.3,N
1662647615.5,286046994.0,N
1662647635.3,286046994.1,N
1662647655.1,286046990.6,Y
1662647675.9,286046993.8,P
1662647695.7,286046993.6,P
1662647715.6,286046986.3,P
1662647735.4,286046991.8,N
1662647755.2,286046994.1,N
1662647775.1,286046992.2,N
1662647776.0,286046992.2,N
1662647795.8,286046994.1,N
1662647815.6,286046993.4,N
1662647835.5,286046993.4,N
1662647855.3,286046993.6,N
1662647875.2,286046992.6,Y
1662647895.9,286047000.3,P
1662647915.7,286047000.4,N
1662647935.6,286047000.1,N
1662647955.4,286047001.9,N
1662647975.2,286047002.3,N
1662647995.1,286047000.2,N
1662647996.0,286047000.2,N
1662648015.8,286046998.3,N
1662648035.7,286046999.2,N
1662648055.5,286046996.9,N
1662648075.3,286046998.7,N
1662648125.2,286047000.9,E
1662648135.1,286047000.5,N
1662648155.9,286046999.4,P
1662648175.7,286046997.5,P
1662648195.5,286046997.7,N
1662648215.4,286046995.8,Y
1662648235.2,286046997.5,P
1662648255.1,286046998.6,N
1662648256.0,286046998.6,N
1662648275.8,286046998.1,Y
1662648295.6,286047004.4,P
1662648315.5,286047004.9,N
1662648335.3,286047003.4,N
1662648355.1,286047005.8,N
1662648375.9,286047003.4,N
1662648395.7,286047008.5,Y
1662648415.6,286047007.5,P
1662648435.4,286047005.2,N
1662648455.2,286047003.2,N
1662648475.1,286046999.7,N
1662648476.0,286046999.7,N
1662648495.8,286047001.5,N
1662648515.6,286046999.7,N
1662648535.5,286047004.4,N
1662648555.3,286047003.6,N
1662648575.2,286047003.0,N
1662648595.9,286047001.7,N
1662648615.7,286047000.1,N
1662648635.6,286047000.3,N
1662648655.4,286047000.3,N
1662648675.2,286047000.6,N
1662648695.1,286046998.2,N
1662648696.0,286046998.2,N
1662648715.8,286047001.8,N
1662648735.7,286047006.3,N
1662648755.5,286047012.1,Y
1662648775.3,286047007.8,P
1662648795.2,286047006.3,N
1662648815.0,286047008.6,P
1662648815.9,286047008.6,Y
1662648835.8,286047011.9,P
1662648855.6,286047012.3,P
1662648875.4,286047013.7,P
1662648895.3,286047012.7,Y
1662648915.1,286047006.0,P
1662648935.8,286047007.2,N
1662648955.7,286047001.5,N
1662648975.5,286047001.2,N
1662648995.4,286046998.8,N
1662649015.2,286046999.4,N
1662649035.0,286046999.4,N
1662649035.9,286046999.4,N
1662649055.8,286046999.7,N
1662649075.6,286047003.6,N
1662649095.4,286047004.0,N
1662649115.3,286047004.7,N
1662649135.1,286047005.7,N
1662649155.9,286047004.2,N
1662649175.7,286047001.9,N
1662649195.5,286047001.1,N
